TimeEST,TemperatureF,Dew PointF,Humidity,Sea Level PressureIn,VisibilityMPH,Wind Direction,Wind SpeedMPH,Gust SpeedMPH,PrecipitationIn,Events,Conditions,WindDirDegrees,DateUTC
12:53 AM,39.0,33.1,79,30.20,9.0,East,3.5,-,N/A,,Clear,80,2012-11-20 05:53:00
1:53 AM,39.9,34.0,79,30.18,8.0,Calm,Calm,-,N/A,,Mostly Cloudy,0,2012-11-20 06:53:00
2:53 AM,39.0,34.0,82,30.18,9.0,North,3.5,-,N/A,,Overcast,360,2012-11-20 07:53:00
3:53 AM,39.0,34.0,82,30.17,8.0,Calm,Calm,-,N/A,,Overcast,0,2012-11-20 08:53:00
4:53 AM,39.0,34.0,82,30.17,9.0,Calm,Calm,-,N/A,,Overcast,0,2012-11-20 09:53:00
5:53 AM,37.9,34.0,86,30.17,8.0,Calm,Calm,-,N/A,,Mostly Cloudy,0,2012-11-20 10:53:00
6:53 AM,37.9,35.1,89,30.17,8.0,Calm,Calm,-,N/A,,Overcast,0,2012-11-20 11:53:00
7:53 AM,39.0,35.1,86,30.16,7.0,Calm,Calm,-,N/A,,Overcast,0,2012-11-20 12:53:00
8:53 AM,39.9,36.0,86,30.18,6.0,Calm,Calm,-,N/A,,Overcast,0,2012-11-20 13:53:00
9:53 AM,44.1,37.0,76,30.17,7.0,Calm,Calm,-,N/A,,Mostly Cloudy,0,2012-11-20 14:53:00
10:53 AM,48.0,37.0,66,30.16,8.0,Calm,Calm,-,N/A,,Overcast,0,2012-11-20 15:53:00
11:53 AM,51.1,37.0,59,30.15,9.0,Calm,Calm,-,N/A,,Overcast,0,2012-11-20 16:53:00
12:53 PM,54.0,37.0,53,30.12,9.0,Calm,Calm,-,N/A,,Overcast,0,2012-11-20 17:53:00
1:53 PM,55.9,36.0,47,30.11,10.0,SSE,4.6,-,N/A,,Overcast,150,2012-11-20 18:53:00
2:53 PM,57.0,37.0,47,30.10,10.0,South,5.8,-,N/A,,Overcast,180,2012-11-20 19:53:00
3:53 PM,55.0,37.9,53,30.11,10.0,SSW,3.5,-,N/A,,Overcast,210,2012-11-20 20:53:00
4:53 PM,53.1,39.9,61,30.12,10.0,Calm,Calm,-,N/A,,Overcast,0,2012-11-20 21:53:00
5:53 PM,52.0,39.0,61,30.13,10.0,Calm,Calm,-,N/A,,Overcast,0,2012-11-20 22:53:00
6:53 PM,50.0,39.9,68,30.15,9.0,ESE,4.6,-,N/A,,Overcast,120,2012-11-20 23:53:00
7:53 PM,50.0,39.9,68,30.17,9.0,Calm,Calm,-,N/A,,Overcast,0,2012-11-21 00:53:00
8:53 PM,48.9,39.9,71,30.17,8.0,Calm,Calm,-,N/A,,Overcast,0,2012-11-21 01:53:00
9:53 PM,46.9,39.9,77,30.17,8.0,Calm,Calm,-,N/A,,Partly Cloudy,0,2012-11-21 02:53:00
10:53 PM,45.0,39.0,80,30.17,6.0,Calm,Calm,-,N/A,,Haze,0,2012-11-21 03:53:00
11:53 PM,39.0,37.0,93,30.18,5.0,Calm,Calm,-,N/A,,Clear,0,2012-11-21 04:53:00